Simultaneous Nadir Overpasses (SNOs) Predictions

Prediction of SNOs between GOES-16 and AQUA Satellite Orbit:

Table of predicted SNOs for the next 14.0 days since TLE Epoch: 6/1/2018
Index Date Time (GOES-16) GOES-16 Lat,Lon AQUA Lat,Lon Distance(km) Time Diff (sec)
1 06/02/2018 06:23:55 -0.00, -75.20 -0.58, -72.38 319.41 80
2 06/02/2018 18:45:19 0.01, -75.20 -0.51, -77.58 271.09 80
3 06/04/2018 18:35:48 0.01, -75.21 0.16, -74.63 66.29 80
4 06/06/2018 18:23:37 0.01, -75.23 0.78, -71.67 404.19 80
5 06/07/2018 06:44:51 -0.02, -75.23 0.30, -76.83 181.13 80
6 06/09/2018 06:29:59 -0.02, -75.26 -0.32, -73.87 157.46 80
7 06/09/2018 18:51:24 0.02, -75.26 -0.76, -79.07 432.92 80
8 06/11/2018 06:17:47 -0.02, -75.28 -0.95, -70.92 496.29 80
9 06/11/2018 18:39:12 0.02, -75.28 -0.13, -76.11 94.00 80
10 06/13/2018 18:29:40 0.03, -75.31 0.50, -73.16 245.06 80
11 06/14/2018 06:50:55 -0.03, -75.32 0.59, -78.31 339.74 80




NCC Satellite Simultaneous Nadir Overpasses (SNOs) Prediction Service
